Printer-friendly version

IAU Minor Planet Center

Minor Planet Center

MPEC 2006-P41 : COMET C/2006 L2 (McNAUGHT)

The following Minor Planet Electronic Circular may be linked-to from your own Web pages, but must not otherwise be redistributed electronically.


Read MPEC 2006-P40 Read MPEC 2006-P42


M.P.E.C. 2006-P41                                Issued 2006 Aug. 11, 19:04 UT

     The Minor Planet Electronic Circulars contain information on unusual
         minor planets and routine data on comets.  They are published
   on behalf of Commission 20 of the International Astronomical Union by the
          Minor Planet Center, Smithsonian Astrophysical Observatory,
                          Cambridge, MA 02138, U.S.A.

                  Supported in part by the Brinson Foundation
                  Supported in part by the TABASGO Foundation
             Prepared using the Tamkin Foundation Computer Network

                              MPC@CFA.HARVARD.EDU
          URL http://cfa-www.harvard.edu/iau/mpc.html  ISSN 1523-6714

                          COMET C/2006 L2 (McNAUGHT)

Observations:
    CK06L020  C2006 08 04.46780 14 08 21.03 -12 08 39.2                 EP041349
    CK06L020  C2006 08 04.46946 14 08 21.03 -12 08 37.3                 EP041349
    CK06L020  C2006 08 04.47111 14 08 21.04 -12 08 35.1          14.7 T EP041349
    CK06L020  C2006 08 04.83095 14 08 25.71 -12 00 59.9          16.1 N EP041147
    CK06L020  C2006 08 04.83603 14 08 25.79 -12 00 52.8                 EP041147
    CK06L020  C2006 08 04.83754 14 08 25.79 -12 00 50.9          15.9 N EP041147
    CK06L020  C2006 08 04.83804 14 08 25.81 -12 00 50.5          15.7 N EP041147
    CK06L020  C2006 08 06.90789 14 08 55.63 -11 18 04.0          15.6 N EP041I77
    CK06L020  C2006 08 06.91493 14 08 55.77 -11 17 55.7          15.0 N EP041I77
    CK06L020  C2006 08 06.92020 14 08 55.84 -11 17 49.2          15.1 N EP041I77
    CK06L020  C2006 08 08.36638 14 09 19.936-10 48 49.63         16.1 N EP041E12
    CK06L020  C2006 08 08.37576 14 09 20.086-10 48 38.50         16.4 N EP041E12
    CK06L020  C2006 08 08.38515 14 09 20.241-10 48 27.21         16.2 N EP041E12
    CK06L020  C2006 08 08.39453 14 09 20.386-10 48 16.11         16.3 N EP041E12

Observer details:
147 Osservatorio Astronomico di Suno.  Observers D. Crespi, S. Foglia,
    G. Galli, S. Minuto.  Measurers S. Foglia, S. Minuto.  0.40-m f/4
    reflector + CCD.
349 Ageo.  Observer K. Kadota.  0.25-m f/5.0 reflector + CCD.
E12 Siding Spring Survey.  Observer R. H. McNaught.  0.5-m Uppsala Schmidt
    + CCD.
I77 CEAMIG-REA Observatory, Belo Horizonte.  Observers C. Jacques, E. Pimentel.
    Measurer C. Jacques.  0.30-m f/3.0 Schmidt-Cassegrain + CCD.

Orbital elements:
    C/2006 L2 (McNaught)
Epoch 2006 Nov. 1.0 TT = JDT 2454040.5
T 2006 Nov. 20.21328 TT                                 MPC
q   1.9938159            (2000.0)            P               Q
z  -0.0003678      Peri.   48.04186     -0.46403973     +0.27041197
 +/-0.0000307      Node   239.24697     -0.75081213     +0.38524558
e   1.0007333      Incl.  101.02065     +0.47005135     +0.88230562
Residuals in seconds of arc
060614 E12  0.7-  0.1-    060618 423  0.4-  0.8-    060714 372  0.8+  0.2-
060614 E12  0.5-  0.3-    060618 I77  0.4+  0.3-    060715 I77  0.1-  0.1-
060614 E12  0.8-  0.2+    060618 I77  0.2+  0.2-    060715 I77  0.2-  0.2+
060614 E12  0.9-  0.1+    060618 I77  0.0   0.2-    060715 I77  0.3-  0.1+
060614 E12  0.5-  0.1-    060618 I77  0.2+  0.1-    060716 213  0.6-  0.4-
060614 E12  0.5-  0.4+    060619 F84  0.2+  0.0     060716 213  0.3-  0.4+
060614 E12  0.8-  0.1-    060619 F84  0.2+  0.1+    060716 213  0.4-  0.4+
060614 E12  1.0-  0.6+    060619 F84  0.1+  0.2+    060716 808  0.6-  0.3+
060614 E12  0.2-  0.5-    060619 F84  0.1+  0.1+    060716 808  0.6-  0.6+
060614 E12  0.1-  0.1-    060619 372  1.6-  0.9+    060717 808  1.0-  0.1+
060614 E12  0.3-  0.2-    060622 834  0.1-  0.4+    060717 808  0.8-  0.3+
060614 E12  0.0   0.6-    060622 834  0.4+  0.1+    060717 808  0.4-  0.7+
060614 E12  0.1+  0.0     060622 213  0.4+  0.9-    060717 808  0.6-  0.1-
060614 E12  0.0   0.1-    060622 213  0.3+  0.9-    060717 808  0.9-  0.4+
060614 E12  0.0   0.2-    060622 213  0.2+  0.5-    060717 H06  0.3-  0.0
060614 E12  0.2-  0.7+    060623 D35  0.2-  0.3+    060717 H06  0.1+  0.4+
060614 808  0.7+  0.8-    060623 D35  0.0   0.2-    060717 808  0.8-  0.6-
060614 808  1.1-  0.7+    060623 D35  0.2-  0.5+    060717 808  0.8-  0.8-
060614 808  0.2+  0.5-    060623 I77  0.4-  0.1+    060717 808  0.2-  0.3+
060614 808  0.5-  1.6+    060623 I77  0.4-  0.1+    060719 415  0.4-  0.3+
060614 808  0.7-  1.0+    060623 I77  0.2-  0.2-    060719 415  0.5-  0.2+
060614 808  1.6+  0.7+    060624 372  0.0   0.3-    060720 170  0.2+  0.1-
060615 808  0.4+  0.3-    060624 372  1.2+  0.6+    060720 A77  0.7+  0.3+
060615 808  1.9+  0.6+    060625 213  0.5+  0.2-    060720 A77  0.1+  1.2-
060615 734  0.3+  0.2+    060625 213  0.4+  0.1+    060720 170  0.5+  0.1-
060615 734  0.0   0.8+    060625 213  0.4-  0.1-    060720 170  0.2+  0.2+
060615 734  0.4+  0.3-    060625 A77 (0.6+  2.1-)   060720 A77  1.7+  0.8-
060615 734  0.3+  0.0     060625 A77  1.3-  0.4+    060720 939  0.1+  0.6+
060615 854  1.3+  0.7-    060625 I77  0.6-  0.3+    060720 939  0.1-  0.4+
060615 854  1.3+  0.6+    060625 I77  0.1-  0.3-    060720 939  0.3-  0.0
060615 854 (2.3+  0.2-)   060625 I77  0.0   0.2-    060721 E12  0.2-  0.4+
060615 854  1.5+  0.4+    060626 104  0.3-  0.3-    060721 E12  0.7-  0.5+
060615 854 (2.3+  0.2+)   060626 213  0.6-  0.1+    060721 E12  0.3-  0.4+
060615 854 (2.2+  0.1-)   060626 213  0.6-  0.2+    060721 213  0.0   0.0
060615 E12  0.3-  0.2-    060626 104  0.3-  0.6+    060721 213  0.3+  0.1-
060615 E12  0.0   0.0     060626 213  0.2-  1.9+    060721 213  0.4+  0.6+
060615 E12  0.3-  0.3+    060626 104  0.9+  0.4-    060721 445  1.7+  0.4-
060615 423  0.5+  0.4-    060627 423  0.1-  0.0     060721 445  1.5+  0.9-
060615 E12  0.0   0.2+    060627 423  0.1-  0.1-    060721 445  0.4-  0.9-
060615 E12  0.0   0.2+    060627 423  0.0   0.1-    060723 I77  0.1+  0.0
060615 E12  0.2+  0.3+    060627 D88  1.1+  0.2-    060723 I77  0.3+  0.2-
060615 423  0.7+  0.4+    060627 D88  0.6-  0.2+    060723 I77  0.1-  0.0
060615 E12  0.3-  0.5+    060627 D88  0.2-  0.1-    060724 J76  0.3+  0.3+
060615 423  0.5+  0.2-    060628 I77  0.7+  0.6-    060724 J76  0.2+  0.2+
060615 423  0.4+  0.0     060628 I77  0.1+  0.2-    060724 J76  0.2+  0.4+
060615 E12  0.6-  0.3-    060628 I77  0.1-  0.2-    060725 104  0.4+  0.5+
060615 E12  0.3-  0.0     060629 E12  0.2-  0.1-    060725 104  0.3+  0.4+
060615 E12  0.6-  0.2-    060629 E12  0.2-  0.2-    060725 104  0.1-  1.0+
060615 E12  0.6-  0.0     060629 E12  0.1-  0.2-    060727 130  0.3-  0.5-
060616 I77  0.1+  0.5-    060629 213  0.0   0.4+    060727 130  0.5-  0.3-
060617 I77  0.4+  0.2-    060629 213  0.5-  0.2-    060729 939  0.9+  0.2+
060617 I77  0.5-  0.1+    060629 213  0.3-  0.2-    060729 939  0.9+  0.2+
060617 I77  0.1-  0.1+    060701 H06  0.2+  0.0     060729 939  0.9+  0.1+
060617 808  0.2-  0.3-    060701 H06  0.1+  0.1-    060804 349  0.1-  0.9-
060617 808  0.1+  0.1-    060701 232  1.2+  1.5-    060804 349  0.4-  1.1-
060617 808  0.2+  0.1-    060701 232  0.9+  1.4-    060804 349  0.5-  1.0-
060617 423  0.1-  0.4-    060701 232  0.6+  1.6-    060804 147  0.1+  0.2-
060617 423  0.1+  0.2-    060703 213  0.7+  0.1+    060804 147  0.4+  0.4+
060617 423  0.2-  0.4-    060703 213  0.7+  0.0     060804 147  0.1+  0.4+
060617 423  0.2-  0.5-    060703 213  0.0   0.0     060804 147  0.3+  0.2+
060617 J55  0.4+  0.1-    060709 673  0.2-  0.7+    060806 I77  0.3-  0.1-
060617 J55  0.4+  0.0     060709 673  0.0   0.2+    060806 I77  0.3+  0.4-
060617 J55  0.5+  0.0     060709 673  0.2-  0.4+    060806 I77  0.2+  0.3-
060617 I77  0.1-  0.2-    060709 673  0.4-  0.7+    060808 E12  0.5-  0.1+
060617 I77  0.2+  0.2-    060709 I77  0.3+  0.2-    060808 E12  0.5-  0.1+
060618 I77  0.0   0.2-    060709 I77  0.4-  0.6+    060808 E12  0.5-  0.2+
060618 I77  0.5-  0.1-    060709 I77  0.2+  0.1+    060808 E12  0.6-  0.2+
060618 423  0.4-  0.4+    060709 I77 (2.1+  0.6-)
060618 423  0.3-  0.1-    060714 372  0.5+  0.4+

     The "original" and "future" barycentric values of 1/a are +0.000116
and +0.000007 (+/- 0.000031) AU^-1, respectively.

Brian G. Marsden             (C) Copyright 2006 MPC           M.P.E.C. 2006-P41

Read MPEC 2006-P40 Read MPEC 2006-P42


Our Web policy. Index to the CBAT/MPC/ICQ pages.


Valid HTML 4.01!